Location: Nairn
(57.5833°N, 3.8667°W)
Time: 03:27:50
(UTC+00:00)

Cosmos 1536 - Pass Details

Date: 07 August 2020
Orbit: 542 x 557 km, 82.5° (Epoch: 27 September)

Event Time Altitude Azimuth Distance (km) Brightness Sun altitude
Exits shadow 00:19:59 24° 222° (SW) 1,174 4.1 -16.1°
Maximum altitude 00:22:10 51° 288° (WNW) 697 3.4 -16.1°
Drops below altitude 10° 00:26:06 10° 5° (N) 1,825 6.8 -16.1°
Sets 00:28:19 0° 11° (N) 2,722 8.1 -16.1°
